Temp
7 7 7 7 7 7 7 7 7 7 7 7 7 7 7 7 7 8 8 8 8 8 8 8 8 8 8 8 9 9 8 8 9 9 9 13 17 17 17 17 17 17 17 17 17 17 18 19 20 20 20 20 21 21 22 22 23 23 22 21 21 21 22 24 25 25 26 27 28 29 30 30 30 31 32 31 29 26 26 25 25 25 25 24 24 23 21 21
7 7 7 7 7 7 7 7 7 7 7 7 7 7 7 7 7 7 7 8 8 8 8 8 8 8 8 8 9 8 8 8 8 9 12 17 18 17 17 17 17 16 17 17 17 17 18 19 20 20 20 20 21 22 22 23 23 22 22 21 21 22 23 25 26 26 27 27 28 29 30 30 30 31 32 32 29 27 26 23 23 24 23 23 23 22 21 21
7 7 7 7 7 7 7 7 7 7 7 7 7 7 7 7 7 7 7 8 8 8 8 8 8 8 8 8 8 8 8 8 9 11 16 18 17 18 18 17 16 16 16 17 17 17 18 19 19 19 20 20 21 22 22 23 23 23 22 21 22 23 24 25 26 26 27 27 27 28 30 29 30 32 32 31 30 29 27 24 24 23 22 22 22 21 21 20
7 7 7 7 7 7 7 7 6 7 7 7 7 7 7 7 7 7 7 7 7 8 8 8 8 8 8 8 8 8 8 9 11 15 17 17 17 18 18 17 16 15 16 16 17 18 18 18 18 18 19 20 21 22 22 22 23 23 23 22 23 25 25 26 26 27 27 27 27 28 29 29 30 32 32 31 30 30 28 25 26 23 22 22 21 21 21 20
7 6 6 6 6 6 6 6 6 6 6 7 7 7 7 7 7 7 7 7 7 7 7 8 8 8 8 8 8 8 8 11 14 16 16 15 16 17 18 18 17 16 16 16 17 17 17 17 17 18 18 19 20 21 21 22 23 23 23 23 24 25 25 26 26 27 27 27 27 27 28 29 30 31 31 31 31 30 30 27 25 23 22 22 21 21 21 21
6 6 6 6 6 6 6 6 6 6 6 6 7 7 7 7 7 7 7 7 7 7 7 7 7 8 8 8 8 8 8 12 14 14 15 15 14 16 17 17 17 16 16 16 17 17 17 17 17 17 18 19 20 21 21 23 23 22 23 24 24 25 25 26 27 27 27 27 27 27 28 29 29 30 30 31 31 31 31 28 24 23 23 23 22 22 21 21
6 6 6 6 6 6 6 6 6 6 6 6 6 7 7 7 7 7 7 7 7 7 7 7 7 8 8 7 8 8 8 10 13 14 15 14 14 14 15 15 15 15 15 16 16 16 17 17 17 18 19 19 20 20 22 23 23 22 22 24 24 25 25 26 26 27 27 27 27 27 28 28 29 30 29 30 30 30 29 26 24 23 23 23 22 22 21 21
6 6 6 6 6 6 6 6 6 6 6 6 6 6 6 7 7 7 7 7 7 6 7 7 7 8 7 7 8 8 8 9 13 14 14 13 14 14 14 14 15 15 15 15 16 16 17 17 17 18 18 19 20 21 22 22 23 22 23 24 25 25 25 26 26 27 27 27 27 27 27 28 29 29 29 30 30 29 26 24 24 23 23 23 22 22 22 21
6 7 7 6 6 6 6 6 6 6 6 6 6 6 6 6 7 7 7 7 7 6 6 7 7 7 7 7 8 7 9 11 12 13 13 13 13 14 14 14 14 15 15 15 16 16 17 17 17 18 19 19 20 21 22 22 22 23 23 24 25 25 26 26 26 27 27 27 27 27 27 28 29 29 29 30 29 26 25 24 23 23 22 22 22 22 22 21
6 6 6 6 6 6 6 6 6 6 6 6 6 6 6 6 6 6 6 7 7 6 6 6 7 7 7 7 7 7 10 12 12 12 12 12 13 13 14 14 14 15 16 16 16 16 17 17 18 19 19 20 20 21 21 22 22 24 24 24 25 25 26 26 26 27 27 27 27 27 27 28 29 29 29 30 27 25 24 24 23 23 22 22 22 22 22 21
6 6 6 6 6 6 6 6 6 6 6 6 6 6 6 6 6 6 6 6 6 6 6 6 6 6 7 7 7 7 10 12 11 12 12 13 12 12 13 13 13 14 15 16 17 17 17 18 19 20 19 20 21 21 21 22 23 24 24 24 25 25 26 26 26 26 26 27 28 28 28 28 28 28 29 30 26 24 24 23 23 23 22 22 22 22 22 22
6 6 6 6 6 6 6 6 6 6 6 6 5 6 6 6 6 6 6 6 6 6 6 6 6 6 6 6 6 8 10 11 11 12 12 12 12 11 12 12 12 13 14 15 17 18 18 19 19 19 19 20 20 20 22 23 24 24 24 23 24 25 25 25 26 26 27 27 28 28 27 26 27 27 29 30 26 24 24 23 23 23 22 23 22 22 22 22
6 6 6 6 6 6 6 6 6 6 6 5 5 5 5 5 6 6 6 6 6 6 6 6 6 6 6 6 7 9 9 10 11 11 11 12 11 11 12 12 12 13 14 15 16 17 18 18 19 18 19 19 20 21 22 23 23 24 24 23 23 23 23 25 26 26 27 27 29 28 24 24 27 27 29 30 27 24 24 23 23 23 23 23 22 22 22 22
6 6 6 6 6 6 6 6 6 6 6 5 5 5 5 5 5 5 6 6 6 6 6 6 6 6 6 6 8 8 9 10 10 10 11 11 11 11 12 12 13 14 15 15 16 17 17 18 18 18 19 19 20 21 21 22 22 23 23 23 23 22 22 25 26 26 26 27 29 27 23 23 27 27 28 29 27 25 24 23 23 23 23 23 22 22 22 22
6 6 6 6 6 6 6 6 6 6 6 6 6 5 5 5 5 6 5 6 6 6 6 6 6 6 5 6 8 9 10 10 9 10 11 11 10 11 12 12 13 14 15 16 16 17 17 18 18 17 19 20 20 20 20 20 21 22 22 22 22 21 22 26 27 26 26 27 28 27 23 24 27 28 28 29 28 27 24 23 23 23 23 23 22 22 22 22
6 6 6 6 6 6 6 6 6 6 6 6 6 5 5 6 6 6 6 6 6 6 6 6 6 6 5 6 9 10 10 10 11 12 12 11 10 11 12 12 13 14 15 16 17 17 18 18 18 18 19 20 20 19 19 19 20 21 21 20 21 22 22 24 26 27 26 27 28 26 24 25 27 28 29 29 29 29 26 24 23 23 23 23 22 22 22 22
6 6 6 6 6 6 6 6 6 6 6 6 6 6 6 7 8 8 7 6 6 6 6 6 7 6 6 7 9 9 10 11 12 12 12 12 12 11 12 12 13 14 16 16 17 17 17 18 18 18 19 19 19 19 18 17 18 19 20 20 21 22 22 23 25 27 27 26 27 26 25 26 27 28 29 29 29 29 27 25 23 24 23 23 23 22 22 20
6 6 6 6 6 6 6 6 6 6 6 6 6 5 6 8 9 8 7 7 7 6 6 6 6 6 7 8 8 9 11 12 12 13 13 13 13 12 12 12 13 14 15 16 16 17 17 17 18 18 18 18 18 19 17 17 18 18 20 21 21 22 22 22 24 26 27 26 26 26 25 25 27 28 28 28 28 28 28 26 24 24 23 23 23 21 19 17
6 6 6 6 6 6 6 6 6 6 5 5 5 5 7 9 9 8 7 7 7 7 6 7 6 6 8 10 9 10 11 12 12 13 14 14 13 12 12 13 14 14 14 14 15 16 16 17 17 16 17 17 18 18 18 19 20 19 20 21 21 21 22 23 24 26 27 26 25 25 25 25 26 27 27 28 28 28 28 26 24 24 23 23 21 18 17 17
6 6 6 6 6 6 6 5 6 6 5 5 5 5 7 8 7 8 7 7 7 8 8 8 7 7 9 10 10 11 11 12 12 12 14 14 14 13 12 13 13 13 14 14 15 16 17 16 15 16 16 18 18 19 19 20 21 21 21 21 21 21 22 23 25 26 27 26 25 25 25 25 26 26 27 28 27 27 27 25 24 24 23 21 19 18 18 17
6 6 6 6 6 6 6 5 6 6 6 6 5 4 6 6 6 6 6 6 7 8 8 9 9 8 9 9 10 11 11 11 12 12 13 14 14 12 12 12 12 12 13 14 15 17 17 15 15 16 17 18 19 19 20 21 21 21 21 21 21 21 22 24 25 26 26 25 25 26 25 25 26 26 27 27 27 27 27 25 24 23 22 19 18 18 18 17
5 5 5 5 5 5 5 5 6 6 6 6 5 4 5 6 7 7 6 6 7 8 8 8 9 9 9 10 10 11 10 10 11 12 13 14 14 13 12 12 12 12 13 14 15 15 15 15 16 17 18 19 19 20 20 20 20 20 20 20 20 21 22 24 25 26 26 25 24 25 24 24 26 26 26 26 27 27 26 25 24 23 21 18 18 19 18 17
5 5 5 5 5 5 5 5 6 6 6 6 5 5 6 7 8 7 6 5 6 8 8 8 8 8 9 9 10 11 10 10 10 11 13 14 13 13 13 12 12 13 13 13 14 14 14 15 17 18 19 19 19 19 20 20 20 20 20 20 20 21 22 22 24 25 26 25 25 25 24 24 25 25 26 26 26 27 26 25 24 22 20 18 18 19 17 17
5 5 5 5 5 5 5 5 6 6 6 5 6 7 7 7 8 7 6 6 5 7 8 9 9 9 9 10 11 10 9 10 10 11 13 14 13 14 13 12 13 13 13 14 14 15 15 16 18 18 19 19 19 19 19 19 19 19 20 20 20 21 22 22 23 25 25 25 26 25 23 23 25 25 25 26 26 26 25 23 22 22 20 18 18 18 17 17
5 5 5 5 5 5 5 5 6 6 5 5 6 7 8 7 8 7 6 5 4 7 9 10 10 10 10 11 11 11 10 10 11 12 14 14 14 14 14 14 13 12 13 14 15 15 16 18 18 18 18 19 18 19 19 19 19 19 20 20 21 22 22 22 23 23 23 23 25 24 21 21 24 24 25 26 26 26 24 22 21 20 19 18 18 17 17 17
5 5 5 5 5 5 5 5 6 5 4 5 6 7 7 7 7 8 7 4 4 7 9 10 10 10 11 11 11 11 10 10 12 13 13 14 14 15 14 14 14 14 14 15 15 16 17 18 18 18 18 18 18 18 19 20 19 18 20 21 21 22 22 22 23 22 21 21 24 25 21 21 23 24 25 26 26 25 23 20 19 19 19 19 18 17 17 17
5 5 5 5 5 5 4 5 5 4 4 6 7 7 7 7 7 7 6 4 4 8 9 9 10 11 11 12 12 11 9 10 13 13 13 14 14 15 14 14 15 15 16 16 15 16 18 18 18 18 18 18 18 18 19 20 19 19 21 22 22 22 22 22 22 22 21 22 23 24 23 21 21 23 25 26 24 23 21 19 19 19 19 19 19 17 17 17
5 5 5 5 5 5 4 4 4 4 5 6 7 6 7 7 7 7 5 3 5 8 8 9 11 11 11 12 12 10 10 12 12 13 14 14 14 14 14 15 15 15 17 16 15 16 18 18 18 18 18 18 18 19 20 21 20 20 23 23 22 23 22 23 22 22 22 22 21 22 23 21 21 23 24 25 23 21 20 19 18 18 19 19 19 18 17 16
5 5 5 5 5 5 5 4 4 5 6 6 6 7 7 7 7 6 5 4 7 9 9 9 10 11 10 11 11 11 11 12 12 14 15 14 15 15 14 15 16 16 17 17 16 17 19 19 19 19 18 18 19 20 21 21 20 22 24 23 23 23 23 23 22 22 21 21 20 21 22 21 21 23 23 23 22 21 20 19 19 19 19 18 18 18 17 16
6 5 5 5 5 5 4 4 5 6 6 6 6 7 7 7 6 5 4 5 8 9 8 9 9 9 9 9 11 11 11 12 13 14 14 14 15 15 14 15 16 16 17 17 17 18 19 20 20 20 19 20 20 21 21 21 22 23 24 23 22 23 23 22 22 22 21 20 20 21 22 21 21 22 23 23 23 22 20 19 19 19 18 18 17 17 17 16
6 5 5 5 5 5 4 5 6 6 6 6 7 7 7 6 5 4 4 7 9 8 8 8 8 9 8 8 9 10 11 11 13 13 13 14 14 14 14 15 15 15 16 16 17 17 19 19 20 20 21 21 21 21 21 22 23 23 23 22 21 21 21 21 21 21 20 20 21 22 22 22 21 22 24 25 24 22 21 19 19 19 19 18 17 17 17 17
6 6 6 6 6 5 5 6 6 6 6 7 6 6 6 5 5 4 6 8 8 7 7 7 8 8 8 8 8 10 11 12 12 13 13 13 13 13 13 14 14 14 13 14 16 17 17 18 20 21 22 22 21 20 21 22 22 22 22 21 20 20 20 20 20 20 20 20 21 23 22 22 21 23 26 27 23 22 21 20 20 20 19 18 18 17 17 17
5 6 7 7 6 6 6 6 6 6 6 7 6 6 5 5 5 6 7 7 7 7 8 7 8 8 8 8 9 11 12 12 13 13 13 14 13 13 14 14 15 15 14 14 15 16 16 18 20 20 21 22 22 20 20 20 21 21 21 20 20 20 19 19 19 20 20 20 21 23 23 21 21 24 28 28 24 22 22 21 21 20 19 19 19 17 17 17
6 6 7 7 7 7 7 6 6 6 6 6 6 5 5 5 6 7 7 7 7 8 8 8 8 8 9 9 9 11 12 12 14 13 13 14 13 13 14 14 15 15 15 15 15 16 15 16 18 19 20 22 22 21 21 21 21 21 21 21 20 20 20 20 20 20 20 21 21 22 22 21 21 24 27 27 24 23 22 21 21 21 20 19 18 17 17 17
6 7 7 7 7 7 7 7 6 6 6 6 5 5 5 5 7 7 7 7 7 7 7 8 8 8 9 9 10 12 12 12 14 14 14 14 13 13 14 14 15 15 15 15 16 17 16 17 19 20 21 22 22 22 23 22 21 21 22 21 20 21 21 21 20 20 21 21 21 21 21 22 24 26 26 26 25 23 22 21 20 20 20 19 18 17 17 17
6 7 7 7 7 7 7 7 7 6 6 6 5 5 5 6 7 8 8 7 7 7 7 8 8 8 8 9 9 11 12 12 13 14 14 14 13 13 14 15 15 15 15 15 17 18 17 17 20 21 21 23 23 23 23 23 21 21 22 21 21 22 23 21 20 20 21 21 21 21 21 22 24 26 25 24 24 22 21 21 20 20 19 19 18 18 17 17
5 6 6 7 7 7 7 7 7 7 6 5 5 5 6 7 8 9 9 8 8 7 7 7 8 8 8 8 9 10 11 11 13 13 14 14 14 14 15 15 16 16 16 16 17 19 18 18 20 21 21 22 24 24 24 24 23 22 21 22 23 23 23 22 21 20 20 20 21 21 21 22 22 23 23 23 22 21 20 20 20 19 19 19 19 18 17 17
4 5 6 7 7 7 7 7 7 7 6 5 5 6 7 8 9 10 9 9 8 8 7 7 8 8 8 8 8 9 10 11 12 13 13 14 14 15 15 16 16 17 17 17 16 18 19 18 20 22 21 22 24 23 23 23 24 23 22 24 23 22 21 21 21 21 20 20 21 21 21 21 21 22 24 22 21 21 20 20 20 19 19 19 18 18 18 17
4 5 7 7 7 7 7 7 7 7 6 5 5 6 7 8 9 10 10 9 9 8 8 8 8 8 8 8 8 9 10 10 11 12 13 14 14 15 16 16 17 17 17 17 16 17 18 18 20 22 22 23 23 22 21 22 23 24 24 24 23 22 21 21 21 21 20 20 21 21 21 21 22 24 26 23 21 21 20 19 20 19 19 19 18 18 18 17
5 5 7 8 7 7 7 7 6 6 5 5 6 6 8 8 9 10 10 10 9 9 9 9 9 8 8 9 9 9 10 11 11 12 13 14 15 15 16 17 17 17 18 18 17 18 18 18 19 21 22 22 22 22 21 21 22 22 22 22 22 22 22 22 21 21 21 21 20 21 21 21 23 25 27 24 21 20 21 20 20 20 20 19 19 18 18 18
5 6 7 8 7 7 7 6 6 5 5 6 7 7 8 8 8 9 10 10 10 10 10 10 9 8 8 8 9 9 9 10 11 12 13 14 15 15 16 17 18 18 18 18 17 18 18 18 19 20 21 21 21 22 22 22 23 23 22 22 22 22 21 21 21 21 21 21 21 21 20 22 24 23 23 23 21 21 21 21 20 20 20 20 19 19 18 18
5 6 7 8 7 7 6 6 6 6 6 7 7 8 8 9 8 8 9 10 10 10 11 10 9 8 8 8 8 9 10 10 11 12 14 15 15 16 17 18 18 19 19 17 17 19 19 18 19 20 20 21 22 23 23 23 23 23 23 23 22 22 22 21 20 21 21 21 21 21 20 22 24 22 21 22 21 21 21 21 21 20 20 20 20 19 19 18
5 6 7 8 8 7 6 6 7 7 7 7 8 8 9 9 8 8 9 9 10 10 10 10 9 9 9 9 9 10 11 11 12 13 14 15 16 17 18 18 18 19 19 18 18 20 19 19 18 19 21 21 23 23 23 24 23 23 23 23 23 22 22 22 22 21 21 21 21 21 20 22 23 22 21 21 21 21 21 21 21 21 20 20 20 19 19 18
5 5 7 8 8 7 7 6 6 6 7 8 8 8 8 9 8 8 8 9 9 9 9 9 9 9 9 10 10 10 11 11 11 13 14 14 15 17 18 19 18 19 19 19 19 20 19 19 19 19 20 20 21 22 22 23 23 22 22 23 23 23 23 24 23 21 21 21 21 21 21 21 22 22 21 21 21 21 21 21 22 21 21 20 20 19 19 18
5 5 6 8 8 7 7 7 6 6 7 7 7 7 8 8 8 9 9 9 9 9 9 9 10 9 10 10 10 11 11 11 11 13 14 14 15 17 18 19 19 19 20 20 21 20 19 19 19 19 19 18 19 20 20 21 21 22 23 23 23 23 23 23 22 21 21 20 20 21 21 21 22 21 21 21 21 21 21 21 21 21 20 20 19 19 19 18
6 5 6 7 7 7 7 7 7 6 6 6 7 8 8 8 9 9 9 9 10 10 9 9 10 10 10 10 10 10 11 12 12 13 13 14 15 16 17 18 19 20 20 21 21 21 20 20 20 20 19 19 19 20 21 21 21 21 22 22 23 23 23 23 22 21 21 21 21 21 21 21 21 21 21 21 21 21 21 21 21 21 20 20 19 19 19 18
6 5 5 5 6 7 7 7 7 6 6 6 7 8 8 8 9 9 9 9 10 10 10 10 10 10 10 10 10 10 11 12 13 13 13 13 14 14 15 18 19 20 21 21 21 21 20 20 20 20 20 20 20 21 22 22 22 21 22 22 22 22 23 22 21 21 21 21 21 21 21 21 21 21 21 22 21 21 21 20 20 19 18 18 18 18 19 18
5 5 5 5 5 6 6 6 6 6 6 7 7 8 8 8 8 9 9 9 10 10 10 10 10 10 10 10 10 10 11 12 12 13 12 12 13 13 15 19 20 20 21 21 21 21 21 20 20 20 20 21 21 21 21 22 22 22 23 23 22 22 22 22 21 21 22 22 22 22 22 22 22 21 21 21 22 21 20 18 18 17 17 17 17 18 18 18
5 4 5 5 5 5 5 5 6 6 6 7 8 8 8 8 8 8 9 9 10 10 10 10 10 11 11 11 11 10 11 11 11 12 12 12 12 12 13 17 19 19 20 21 21 20 20 20 20 20 21 21 21 21 21 22 22 23 23 23 22 21 22 23 22 22 23 22 22 21 21 21 22 21 19 19 20 19 18 17 17 17 17 17 17 18 18 17
4 4 4 4 4 4 5 6 6 6 6 7 8 8 8 8 8 8 9 9 9 10 10 10 10 10 10 11 11 10 11 11 11 11 12 11 12 12 12 14 16 17 18 20 21 20 20 19 19 20 21 19 20 21 21 21 21 22 21 21 21 21 21 22 22 22 23 22 21 20 20 21 21 20 18 18 18 18 18 18 17 17 17 17 17 17 17 16
3 4 4 4 4 5 6 6 6 6 6 7 7 7 7 8 8 8 9 9 9 10 10 10 10 10 10 10 10 10 11 12 11 12 12 12 12 12 12 13 14 14 16 19 21 21 20 20 19 20 20 18 18 20 21 21 21 21 20 19 20 21 21 21 22 22 23 22 21 20 21 22 21 18 18 18 18 18 19 18 18 17 17 18 18 17 16 16
3 4 4 4 4 5 6 6 6 6 7 7 7 7 7 8 8 8 9 10 10 10 10 10 9 9 9 10 10 11 11 11 11 12 12 12 12 12 12 13 13 13 14 18 20 20 20 20 19 19 19 18 18 19 20 21 20 20 19 19 19 20 21 21 21 21 21 21 21 22 22 22 20 18 18 18 18 19 19 18 18 17 17 17 17 16 16 15
Height
828 827 826 824 823 821 819 818 817 815 814 812 810 809 808 807 805 804 803 802 801 799 798 796 795 794 792 791 789 787 783 780 775 773 769 757 755 758 758 758 758 760 761 761 761 762 761 761 761 762 763 764 765 764 763 762 762 766 772 780 781 776 769 760 757 756 754 750 744 741 739 741 740 731 721 719 725 730 734 733 731 728 726 727 728 731 738 745
828 827 825 824 822 820 819 817 815 814 812 811 809 808 807 806 804 803 802 801 799 798 796 795 794 793 792 791 788 786 783 778 774 769 760 752 753 753 754 756 757 759 760 760 760 760 761 761 760 761 763 764 763 761 762 760 759 765 769 775 772 764 757 750 750 749 747 747 744 741 737 738 738 731 723 727 735 733 738 743 738 737 735 734 734 737 741 745
828 826 824 823 821 819 818 816 814 812 811 810 808 807 806 804 803 802 800 799 798 797 795 794 793 792 791 790 788 787 782 778 772 762 753 751 751 749 750 753 755 758 759 759 760 760 760 760 760 762 763 764 762 760 762 759 758 761 765 770 762 753 752 747 746 745 743 743 745 743 736 737 734 726 725 730 735 732 737 743 742 744 742 739 739 740 743 746
827 825 824 822 820 818 816 814 813 811 809 808 806 805 804 803 802 800 799 798 797 795 794 793 792 791 790 789 788 786 783 779 766 754 751 752 751 749 749 751 754 756 757 758 760 760 759 760 761 762 763 765 761 759 761 757 757 757 758 761 754 749 751 745 743 742 739 741 745 743 739 740 732 726 727 730 736 736 734 733 732 737 738 739 741 741 743 745
826 824 823 821 819 817 815 814 812 810 808 806 805 804 802 801 800 799 798 796 795 794 793 792 791 790 789 789 788 787 786 776 757 750 752 751 751 751 751 751 752 754 756 758 759 759 759 760 761 762 764 765 762 760 759 753 753 755 750 750 749 748 748 742 740 740 737 739 742 743 742 739 731 729 728 728 736 735 728 725 725 728 731 733 736 738 741 742
825 823 822 820 818 816 814 812 811 809 807 805 803 802 800 800 798 797 796 795 794 793 792 791 790 790 788 788 787 787 788 772 751 751 751 750 752 752 752 752 752 753 755 757 757 758 759 759 762 763 763 763 762 760 756 750 751 755 749 746 747 745 745 741 738 737 737 739 742 741 739 735 734 733 728 726 729 725 718 717 721 723 724 726 730 735 738 740
824 823 821 819 817 815 813 811 810 807 806 804 802 800 799 798 796 796 794 794 793 791 790 789 788 789 787 787 786 785 788 770 749 750 750 749 752 752 754 753 753 754 754 755 755 757 758 759 761 761 761 762 760 757 754 749 748 753 751 745 744 743 741 739 736 735 735 738 738 736 736 736 738 735 729 727 724 718 714 714 719 722 723 727 730 733 734 736
823 822 820 818 816 814 812 810 808 806 804 803 801 799 798 796 795 794 793 792 791 790 789 788 788 787 786 786 785 784 782 762 745 749 751 751 752 752 754 753 753 754 752 753 753 754 757 759 760 758 761 760 755 754 751 751 750 749 749 745 742 740 738 736 735 733 733 735 734 735 738 738 735 732 729 726 721 716 715 717 720 723 725 728 729 731 733 737
822 820 819 817 815 813 811 809 807 805 803 801 799 797 796 794 793 792 791 791 790 789 787 787 786 785 786 785 785 784 767 749 746 752 752 752 751 751 752 752 753 753 752 752 751 753 754 756 756 754 757 755 752 752 749 753 752 745 745 744 741 739 735 734 734 731 731 731 732 736 738 735 730 730 730 724 720 718 717 720 722 724 728 728 729 731 734 739
821 819 817 815 814 812 810 808 806 804 802 800 798 796 795 793 792 790 790 789 788 788 786 786 785 784 785 782 785 780 755 745 751 751 751 751 750 750 750 751 753 752 752 751 750 752 751 752 752 750 753 752 749 750 747 750 747 739 740 741 738 738 733 732 733 730 729 729 731 736 737 733 727 730 734 724 719 719 720 724 725 726 729 729 731 732 734 738
820 818 816 814 813 811 808 806 804 802 800 798 796 794 793 791 790 788 788 787 786 786 785 784 784 784 783 781 784 771 748 746 750 748 750 750 749 750 748 749 751 752 751 749 749 749 749 749 748 750 753 750 748 748 744 743 741 737 739 740 737 736 733 731 731 729 730 729 727 730 733 730 727 730 731 723 720 721 723 727 727 728 730 729 732 733 736 738
818 817 815 813 812 809 807 805 803 801 798 796 795 792 791 789 788 786 785 785 784 784 783 783 783 782 781 780 773 756 745 747 747 747 748 747 749 748 746 748 749 750 750 749 747 746 747 747 747 751 750 747 748 749 743 736 738 737 738 743 740 736 735 731 729 728 728 728 722 726 736 735 732 730 724 718 720 721 724 728 729 729 730 730 733 735 737 738
817 815 813 812 810 808 806 804 801 799 796 794 792 790 788 786 785 784 783 782 782 782 781 781 781 780 781 773 757 749 750 750 747 746 744 745 747 745 745 746 746 748 748 747 746 744 746 746 747 748 745 746 748 744 738 733 736 737 736 742 744 744 740 729 727 726 726 725 718 727 745 742 733 728 721 716 719 723 728 730 730 730 730 731 733 735 738 738
816 814 812 810 808 807 805 802 800 797 795 792 790 788 785 783 782 781 780 779 779 779 779 779 779 779 778 765 750 750 751 749 749 744 739 742 745 744 742 743 744 744 745 745 744 743 744 744 745 746 743 744 744 740 739 737 737 738 738 740 744 751 744 727 724 726 726 723 716 728 745 740 730 726 721 715 716 723 729 730 729 730 730 731 733 735 737 737
815 813 811 809 807 805 803 801 799 796 793 790 787 785 781 779 778 776 776 776 775 777 776 777 777 776 775 762 749 748 747 746 744 738 737 740 744 743 740 741 742 741 742 742 741 741 742 742 744 746 743 740 741 745 747 745 741 739 745 747 744 748 743 727 721 723 725 722 716 727 741 736 728 722 717 715 715 719 727 730 728 729 730 731 733 734 736 736
814 812 810 808 806 804 801 799 797 794 792 789 785 782 778 775 772 771 772 771 773 774 775 776 773 775 775 760 747 744 743 741 737 734 736 738 741 741 739 741 741 739 740 739 739 740 740 741 742 742 741 740 742 749 753 753 749 743 747 752 745 744 744 733 722 717 720 721 718 724 733 732 726 719 715 713 713 716 723 728 727 728 729 730 732 734 736 739
814 811 809 807 805 802 800 797 796 793 790 787 783 779 774 770 767 766 767 768 770 770 772 772 770 773 768 752 746 743 738 736 735 734 734 734 737 738 739 741 740 739 738 737 738 738 739 741 741 740 739 741 741 747 757 761 757 751 748 749 744 740 742 738 728 718 716 721 720 721 727 728 723 717 715 713 712 715 720 725 727 727 729 729 732 735 739 744
813 810 808 806 803 801 798 796 794 791 789 785 782 778 772 767 764 763 763 765 767 769 771 769 771 775 758 743 746 741 734 735 734 732 731 731 733 735 738 740 740 740 739 739 737 737 740 739 740 742 740 740 740 742 753 754 751 753 749 746 744 739 739 738 731 720 716 721 722 722 725 725 721 717 716 713 712 715 717 721 724 726 728 730 734 740 745 748
812 809 807 805 802 800 797 795 792 789 787 783 780 776 770 765 763 762 762 764 766 768 770 767 769 769 750 738 741 736 734 736 732 730 729 728 731 733 736 738 739 740 741 741 738 736 739 740 741 743 739 737 736 737 742 740 739 745 743 742 742 739 737 734 727 718 714 721 724 724 725 724 721 718 717 713 712 714 715 718 723 725 728 732 737 743 746 747
810 808 806 803 801 798 796 793 790 788 786 783 779 776 771 769 768 765 764 765 765 763 762 760 760 757 747 740 736 734 735 734 731 728 725 727 729 732 736 738 739 740 741 741 738 733 736 743 741 736 734 732 732 733 734 733 732 735 738 739 738 738 737 729 723 717 713 720 723 721 725 724 720 718 715 712 713 714 715 718 723 724 727 733 739 743 744 746
809 807 804 802 799 797 794 792 789 787 785 783 781 780 777 776 776 772 768 763 759 758 757 753 752 750 745 740 732 734 736 731 728 724 723 726 726 731 735 736 739 740 739 738 736 732 734 740 734 729 730 729 729 731 731 731 731 733 736 739 739 739 735 725 720 716 713 721 723 719 724 724 719 718 713 711 714 713 713 718 721 724 729 736 739 740 743 746
808 805 802 800 798 795 793 790 788 785 784 782 780 781 779 777 776 774 771 764 752 751 752 747 746 743 739 736 729 735 740 735 729 720 719 723 723 727 731 733 737 736 736 738 736 735 735 732 727 727 727 726 728 729 730 732 732 735 736 739 742 737 732 725 718 714 713 721 724 721 726 724 716 714 711 709 710 709 708 711 715 721 729 737 738 738 743 747
806 803 801 799 796 794 791 789 786 784 783 781 780 779 777 774 773 771 771 767 751 743 745 741 739 737 733 730 725 732 737 735 732 721 715 721 721 722 727 731 734 733 735 736 732 733 733 728 724 725 725 726 729 728 731 734 734 735 736 741 743 735 734 733 723 717 714 717 720 720 724 722 715 713 710 706 705 704 705 708 710 715 722 730 731 732 738 742
804 801 799 796 794 792 789 787 784 783 781 780 779 777 775 773 772 771 769 768 756 740 735 731 730 730 726 722 722 728 731 730 729 719 713 719 720 719 723 727 731 733 731 729 728 728 726 720 719 722 724 726 729 729 730 735 736 735 733 737 739 733 733 731 724 720 717 716 715 719 731 727 716 717 712 704 703 704 706 711 715 717 721 727 730 731 735 736
802 800 797 794 793 790 788 786 782 782 780 777 776 774 774 772 770 771 768 770 763 741 728 725 725 724 718 718 722 723 725 724 721 715 712 716 717 717 720 722 726 729 727 726 728 727 722 716 715 721 724 724 728 728 726 730 736 735 730 730 730 729 729 727 725 726 730 730 717 720 744 737 715 715 712 702 704 706 708 714 719 721 725 730 732 734 736 736
800 798 795 793 791 788 787 784 780 781 778 775 774 772 772 771 769 770 769 774 768 742 729 726 723 720 715 717 719 721 728 722 712 711 711 713 715 714 717 717 718 722 723 724 725 722 718 712 712 718 722 724 727 726 721 723 735 737 725 721 724 725 728 727 727 731 737 736 718 715 739 738 718 713 708 701 705 709 713 720 721 722 725 727 730 732 733 734
799 796 793 791 788 786 785 782 780 780 777 774 772 771 771 769 769 767 769 782 770 740 732 729 722 720 717 716 715 723 731 716 705 707 706 710 713 712 715 715 714 717 716 720 724 716 710 712 714 715 719 723 724 722 717 718 731 732 717 715 722 723 726 727 728 733 732 729 721 714 724 733 722 710 703 701 710 717 721 726 725 723 724 723 725 729 730 731
797 793 791 788 785 784 783 780 779 776 774 772 770 771 770 768 770 767 776 788 765 735 733 730 722 719 717 715 714 717 716 707 706 705 700 708 711 710 715 711 710 713 709 715 721 710 704 711 712 712 717 719 716 714 712 715 725 721 710 712 717 718 722 722 726 732 729 730 734 721 718 732 725 707 703 704 712 724 726 727 727 725 723 723 724 728 730 731
794 790 787 785 782 780 779 778 777 773 771 771 770 770 768 769 769 769 780 780 750 731 734 729 722 720 718 715 712 712 709 706 708 702 697 707 708 708 712 707 706 709 706 709 713 707 702 703 703 707 713 712 709 708 707 712 718 711 706 711 713 714 717 719 725 730 730 737 741 726 719 733 727 708 708 713 714 722 725 725 725 723 722 723 724 727 730 732
790 786 783 782 778 776 776 775 773 771 770 770 771 769 768 769 771 778 786 771 742 733 734 729 726 724 723 719 713 712 711 708 706 701 700 704 706 707 708 705 704 706 705 706 708 704 696 695 697 700 702 701 702 704 704 706 709 706 707 713 716 717 716 720 723 725 737 743 737 724 716 727 731 713 705 710 707 709 718 724 725 722 722 724 725 726 728 730
787 783 780 778 776 775 774 773 770 770 770 770 769 768 768 770 775 785 780 755 738 738 735 732 729 725 725 725 720 715 711 708 706 705 705 704 706 709 708 707 706 707 709 709 708 703 698 698 697 692 691 694 699 702 701 701 704 705 709 716 723 726 724 729 729 730 745 746 728 716 711 720 732 716 696 695 695 698 707 716 719 718 719 721 721 723 724 726
784 780 777 775 774 773 772 770 769 769 769 769 769 768 770 774 778 779 764 744 742 743 737 734 730 725 725 726 723 715 709 708 705 704 705 705 708 709 709 709 707 711 717 714 710 707 704 699 693 690 687 689 697 705 705 703 704 708 712 719 731 737 738 742 741 739 745 739 720 709 710 719 723 707 688 688 694 697 698 702 705 708 712 715 716 719 721 723
781 777 774 772 772 771 770 768 768 768 768 768 770 770 773 778 773 764 756 749 747 743 737 735 730 725 724 725 721 710 705 705 702 702 702 702 707 707 706 706 702 707 714 713 713 712 710 701 692 692 689 683 689 702 709 707 705 709 713 720 731 739 744 749 747 742 739 731 716 706 710 720 717 699 683 683 691 692 691 692 692 695 702 708 711 716 720 721
778 775 772 770 770 769 768 768 767 768 768 769 772 773 776 777 764 752 752 750 745 740 737 735 731 724 720 720 717 706 704 703 697 700 701 701 708 709 705 704 702 702 705 709 711 709 713 709 694 690 688 681 683 691 696 699 703 705 704 712 722 725 731 740 739 737 734 727 716 710 715 720 712 694 680 680 686 687 686 688 690 694 699 703 710 716 718 719
776 773 771 769 768 768 767 767 767 768 770 770 774 776 776 773 761 752 751 748 745 743 738 733 732 728 719 716 713 705 704 703 694 696 699 701 707 707 703 702 701 701 703 707 705 701 707 704 685 680 680 676 680 682 681 691 704 702 698 707 715 710 711 721 727 726 723 722 719 715 714 709 695 682 677 680 683 685 689 692 697 702 704 707 712 715 716 716
774 772 771 769 768 768 768 767 767 768 770 771 776 778 773 765 757 751 749 746 746 745 741 735 731 730 726 721 717 709 704 703 698 696 697 698 702 702 700 698 697 699 701 703 699 695 704 700 679 676 678 672 675 677 675 686 698 700 702 705 702 696 697 710 724 721 717 724 724 718 712 703 693 686 682 683 685 689 695 697 701 703 705 710 712 713 715 715
774 772 771 770 769 768 768 768 768 768 770 774 778 776 767 757 750 745 743 742 743 743 744 741 732 732 734 730 724 716 710 706 700 698 697 698 700 698 696 694 692 693 695 698 695 688 694 697 680 675 681 673 667 671 672 674 681 693 703 697 690 693 696 704 719 724 726 731 725 717 714 709 706 701 692 691 694 697 699 699 702 706 708 710 710 711 713 714
775 773 772 770 769 769 768 768 768 768 771 775 777 771 761 753 746 740 739 739 739 740 744 742 735 733 736 735 729 720 715 711 705 701 699 697 696 693 692 692 689 688 688 693 697 689 688 694 683 672 676 672 663 672 680 675 670 679 687 684 687 703 709 709 718 725 732 736 726 718 717 713 709 700 692 697 700 700 702 702 704 708 708 709 710 711 713 714
776 774 772 770 769 768 768 768 768 769 772 776 777 768 756 749 743 737 736 737 737 739 741 738 734 734 734 733 730 723 719 714 708 704 699 696 693 688 686 687 686 685 685 689 696 693 688 694 688 671 667 669 668 676 687 684 675 673 678 681 684 695 703 706 712 717 723 732 730 722 719 712 702 689 682 693 700 698 703 705 703 703 704 705 707 709 710 712
777 776 773 770 769 769 769 769 769 772 774 773 770 762 752 747 741 735 734 735 735 735 735 732 732 735 734 730 727 724 721 714 709 706 698 692 690 687 683 682 681 681 682 687 691 690 688 692 690 675 665 672 677 676 680 683 682 681 685 688 688 692 695 698 706 709 711 723 728 726 724 710 693 682 678 685 694 694 695 699 700 699 699 700 701 702 704 706
779 779 773 769 770 769 769 770 771 773 772 767 763 757 750 746 741 736 733 731 730 729 727 728 731 734 735 731 727 725 722 715 709 705 696 690 689 687 681 677 677 678 682 688 691 689 689 690 689 682 675 678 676 669 669 673 676 680 684 688 690 691 696 705 715 709 702 711 717 719 723 706 684 683 682 682 689 689 685 689 694 696 697 697 699 699 700 702
781 780 773 769 770 769 770 772 770 769 768 763 758 753 748 744 742 739 733 728 727 726 724 727 731 733 733 732 729 726 722 715 708 701 693 687 685 683 677 671 672 675 679 687 687 683 684 688 689 684 678 676 669 663 665 666 669 674 676 680 685 688 693 705 717 710 701 707 710 712 717 700 681 683 686 683 685 683 681 683 687 692 693 693 696 699 701 704
783 780 772 769 770 769 771 772 767 766 765 759 754 750 746 743 741 739 735 731 729 727 726 728 730 730 729 729 727 722 717 712 705 697 691 686 680 676 672 669 671 673 676 683 683 678 681 687 689 684 676 671 666 663 663 663 668 676 678 676 681 686 688 692 699 702 701 705 708 714 719 702 683 683 684 682 681 680 680 681 683 688 690 691 695 698 701 705
783 780 773 770 770 769 772 773 770 767 762 756 753 750 745 742 740 739 736 734 730 729 731 730 728 728 727 724 722 718 715 714 706 695 691 689 680 671 667 666 670 672 674 677 676 676 682 686 686 688 687 684 680 678 676 673 673 678 679 677 678 682 685 685 691 699 703 706 706 711 718 705 687 684 684 681 681 681 682 682 682 686 688 691 695 698 701 706
782 779 774 771 769 770 771 771 771 769 763 759 755 749 744 741 739 737 735 732 729 729 732 729 725 726 724 720 719 716 712 713 708 698 693 691 681 669 664 664 666 669 670 669 666 670 679 681 680 686 694 697 696 693 688 683 680 678 677 677 678 682 685 687 693 703 708 710 707 706 710 705 692 689 687 683 683 683 684 686 686 689 691 694 698 701 705 708
785 783 780 773 769 770 771 769 769 768 766 764 757 747 743 741 736 733 732 731 728 726 728 727 723 723 722 719 720 718 710 706 704 700 696 693 685 674 667 665 664 665 666 664 662 667 675 675 674 679 686 689 689 684 677 675 681 683 679 678 680 682 683 686 695 702 703 705 705 701 703 704 698 694 691 688 688 687 687 689 690 692 695 697 700 703 707 710
788 789 787 782 775 771 770 768 768 769 767 765 759 750 745 742 737 733 731 730 727 725 725 724 722 723 721 719 720 719 711 704 700 699 698 695 689 680 670 663 662 663 663 662 663 668 674 677 676 677 678 678 678 675 670 669 677 681 679 680 683 684 685 688 695 699 697 701 705 701 701 703 700 696 692 688 689 689 690 692 694 696 699 700 702 703 705 708
791 791 789 788 785 780 776 772 770 770 766 761 758 753 748 744 741 738 734 730 726 724 724 724 722 721 719 718 719 717 711 705 701 699 699 696 691 686 674 662 660 662 663 663 663 666 673 678 678 677 677 675 675 675 673 670 673 675 676 679 683 686 687 688 693 694 692 696 700 697 698 699 696 696 692 686 685 687 691 696 698 700 702 703 703 703 704 706
795 794 790 788 788 785 781 776 772 770 765 759 756 753 750 747 743 739 736 732 729 725 724 725 722 718 717 716 717 717 713 710 708 704 702 700 697 694 687 675 668 667 666 665 664 665 671 677 677 675 677 677 677 676 675 674 673 673 676 679 683 689 689 686 688 689 685 689 694 698 702 699 693 694 693 689 686 688 694 699 700 702 704 704 705 705 706 709
799 798 793 790 788 783 779 775 771 770 766 760 757 754 751 749 745 740 735 734 733 727 722 723 721 719 718 716 716 717 713 711 712 707 703 704 702 699 698 691 683 678 673 667 664 664 670 679 678 672 678 685 683 676 674 677 677 677 682 686 686 688 691 689 688 687 685 690 696 701 705 699 692 693 695 693 691 692 696 699 701 703 705 705 707 709 711 713
801 800 797 794 788 781 776 773 771 770 765 761 760 757 752 749 746 742 735 730 730 727 722 723 723 719 718 716 716 715 709 706 709 706 701 703 703 700 699 695 691 691 683 670 665 665 669 678 678 675 684 694 689 680 677 678 680 685 692 695 691 689 691 690 688 684 684 690 697 702 703 697 693 696 697 695 693 693 696 700 703 705 705 705 708 711 714 716
801 798 796 796 790 781 777 775 771 769 765 762 762 759 754 750 744 741 735 727 724 724 722 723 723 720 719 718 714 709 705 704 704 701 698 698 698 696 695 693 691 695 691 676 669 670 672 677 681 683 692 698 693 687 682 680 688 698 699 698 697 693 689 688 690 688 688 691 693 694 693 691 693 697 697 697 696 696 697 699 701 704 706 707 709 711 714 715
Wind_Speed
19 19 19 19 18 18 17 17 17 17 17 17 17 17 17 17 17 17 17 17 17 18 19 20 20 21 21 22 25 26 31 33 33 29 22 23 23 20 17 14 13 9 8 12 10 7 6 6 8 9 5 2 3 3 4 5 3 3 3 5 6 7 8 7 7 6 3 7 7 5 5 6 5 6 5 4 9 10 6 6 4 5 6 9 15 29 37 34
19 20 19 19 19 19 19 19 18 18 17 18 17 17 17 18 18 17 18 17 17 18 18 19 19 20 20 21 23 25 30 33 29 25 23 19 15 18 21 18 16 10 7 10 9 7 4 2 4 4 3 2 3 3 4 4 5 5 3 5 8 8 7 5 6 5 5 9 5 6 9 7 6 6 3 3 2 5 8 5 4 9 10 12 20 29 32 32
19 20 20 20 20 20 20 20 20 19 18 17 17 18 18 18 18 18 18 18 18 18 18 19 18 19 19 20 22 23 27 28 20 15 10 8 6 9 16 20 16 12 11 10 8 8 7 4 4 3 2 3 3 4 4 4 5 5 4 7 8 6 6 6 7 9 10 10 6 8 10 9 8 4 2 1 1 3 7 5 5 9 12 15 17 22 26 28
20 20 21 21 21 21 20 20 21 21 20 18 17 18 18 18 18 18 18 18 18 18 18 19 18 18 17 18 19 21 23 17 8 6 3 11 11 9 4 16 17 16 15 13 12 10 10 7 4 2 2 3 4 5 5 5 4 3 7 8 5 3 7 9 9 11 12 10 6 8 10 11 9 2 1 2 1 1 4 5 7 13 16 18 17 18 21 22
21 21 21 22 22 21 21 21 21 21 21 20 19 18 18 18 18 18 18 18 19 18 18 18 18 17 16 17 16 17 15 5 2 0 4 11 14 10 4 5 13 18 17 13 12 12 12 6 1 0 2 2 4 4 6 8 4 4 8 8 4 4 7 9 9 11 12 11 8 8 8 8 8 4 4 5 3 4 5 6 8 16 20 21 20 19 18 19
21 22 22 22 21 21 21 21 21 21 21 22 21 19 18 18 18 18 18 19 19 19 18 17 17 16 16 15 14 12 5 3 7 2 5 14 19 11 6 3 8 15 16 15 12 9 7 4 3 2 2 3 6 6 6 8 7 6 8 6 6 8 8 7 7 10 11 10 9 6 5 5 6 6 3 4 5 7 7 9 12 17 21 21 20 19 18 19
21 22 22 22 22 22 22 22 22 22 21 21 21 21 19 18 18 18 18 19 19 19 19 18 17 16 16 15 11 9 3 10 19 8 3 16 20 13 8 6 9 13 15 15 12 8 5 6 6 4 3 4 5 6 7 8 9 9 9 7 7 9 10 9 9 11 10 10 10 4 4 6 6 6 4 3 4 7 4 11 15 15 17 18 18 19 20 20
22 22 23 22 22 22 22 22 22 22 22 21 21 21 20 19 19 19 18 18 19 20 19 17 17 16 15 13 9 7 6 19 31 22 17 21 18 13 9 8 9 13 15 15 13 9 6 6 7 5 4 6 5 5 7 8 10 11 10 8 8 9 10 10 11 14 13 11 9 7 7 9 9 5 4 7 8 4 4 12 14 15 16 17 19 19 17 16
22 23 23 23 23 23 23 23 22 22 22 21 21 20 21 21 20 20 19 19 19 20 20 18 17 16 15 11 7 8 12 25 31 22 17 16 18 18 14 12 10 13 15 14 14 10 7 7 9 7 5 6 7 5 6 7 7 8 10 9 9 11 11 10 11 15 15 9 6 8 10 10 9 6 5 8 6 2 9 13 13 15 16 15 16 16 15 15
22 23 23 24 24 24 23 24 23 23 22 22 21 20 21 22 21 20 20 20 19 20 20 18 17 16 15 10 8 9 11 16 16 13 10 11 19 24 20 16 12 11 12 12 13 11 8 6 7 6 4 4 5 5 6 6 4 5 8 10 12 12 12 11 11 14 13 8 7 8 9 10 8 7 5 6 4 7 11 12 12 13 14 14 13 13 14 15
21 22 23 24 24 25 24 25 25 23 23 22 22 22 21 22 22 21 20 20 20 20 19 18 17 16 15 9 7 11 8 6 9 12 15 20 28 29 25 21 15 14 12 9 13 16 15 12 7 4 4 4 4 5 7 6 5 7 7 8 12 13 12 13 13 13 9 6 8 8 8 10 7 6 7 5 5 8 12 12 12 13 12 13 13 12 11 12
22 22 23 23 24 25 25 25 25 24 24 23 23 23 23 22 23 22 22 21 21 20 18 18 17 15 15 10 12 21 17 15 22 26 30 33 34 30 27 25 20 18 16 10 9 15 19 17 12 7 5 4 3 4 5 5 6 9 7 6 10 9 11 14 13 13 10 6 6 7 6 8 6 6 9 8 6 8 11 12 12 12 11 11 11 10 9 10
24 24 24 23 23 25 26 26 26 26 25 25 25 24 24 24 23 23 23 22 21 20 19 18 17 17 14 7 15 30 30 30 36 38 41 37 31 29 28 25 22 20 18 15 14 14 13 12 9 8 8 5 4 3 5 5 4 7 7 5 7 6 8 10 10 13 12 8 6 6 5 7 6 7 9 9 9 9 9 11 11 11 10 10 10 9 9 11
25 25 26 25 24 24 26 26 27 27 27 27 27 27 27 26 25 25 23 22 21 19 18 17 16 15 11 10 20 31 31 32 37 39 41 36 25 25 27 23 22 20 18 18 19 16 11 11 7 4 6 6 5 6 7 6 2 3 4 3 5 5 5 6 8 10 11 9 6 7 6 8 6 8 9 7 10 11 10 11 12 11 9 9 10 10 11 12
25 25 26 27 25 25 26 26 27 28 28 29 29 30 31 31 30 27 24 22 20 18 17 16 15 11 7 12 21 24 20 21 31 37 36 32 21 17 23 21 19 18 16 17 18 14 11 9 5 2 3 5 6 6 5 4 2 2 3 3 3 4 4 5 8 9 11 9 7 9 6 4 6 8 9 7 8 11 10 11 12 12 11 10 9 10 10 10
25 25 26 26 27 27 27 26 26 28 29 29 30 33 36 36 34 29 25 21 18 16 14 12 12 9 5 9 13 14 13 15 25 28 26 26 22 18 22 19 16 17 15 15 16 13 10 7 3 4 3 4 6 5 3 4 3 2 3 3 3 5 4 4 6 8 12 9 7 10 6 1 4 8 8 7 8 9 9 11 12 12 11 11 9 9 8 7
25 25 25 26 27 29 29 28 27 28 28 30 32 34 38 36 29 24 21 17 14 14 12 10 9 6 7 10 11 12 13 14 18 20 19 22 22 22 20 12 10 13 11 13 15 10 6 4 3 4 4 4 4 5 5 7 6 2 2 3 4 4 5 4 4 5 8 9 9 9 6 4 5 6 8 8 8 9 9 10 12 11 10 10 8 7 6 6
25 25 25 26 28 29 30 29 29 28 28 30 31 35 37 28 18 14 9 5 5 5 8 11 8 4 6 9 10 12 11 11 14 17 19 18 17 21 19 9 6 7 5 7 9 6 4 3 3 3 4 6 6 8 8 7 7 5 3 4 4 4 4 5 4 5 5 7 10 9 8 7 7 6 7 8 8 10 10 9 11 11 10 9 7 8 10 11
25 25 26 27 28 29 30 29 30 30 28 29 33 35 30 18 11 7 5 5 3 1 3 6 6 4 6 7 11 14 13 17 20 21 20 15 13 18 18 10 6 5 3 2 4 6 4 2 4 6 7 9 9 9 9 5 7 9 7 4 5 5 5 5 4 5 6 6 8 10 10 8 8 8 8 9 7 8 9 7 9 10 9 8 8 10 11 12
25 26 27 28 29 29 29 29 30 30 28 30 31 25 16 10 7 3 4 2 4 6 7 7 8 9 10 13 15 17 18 19 17 15 18 13 12 14 11 8 5 4 5 4 4 5 5 4 8 9 9 11 11 8 7 6 6 7 6 5 6 5 5 5 4 6 7 7 8 9 9 10 10 10 11 11 8 8 8 7 9 11 9 9 10 12 11 12
27 29 28 29 29 28 28 28 29 31 30 28 21 10 4 4 5 5 4 5 10 12 13 14 14 14 15 18 23 19 14 14 14 15 22 17 12 14 6 8 7 7 6 4 4 3 5 8 11 10 8 9 10 8 7 8 10 7 5 5 6 5 5 5 6 7 5 6 8 7 8 11 12 11 12 11 10 11 9 8 10 10 9 8 12 15 12 11
29 29 29 29 28 27 28 27 29 31 26 18 10 2 4 6 9 9 6 6 10 13 14 17 19 18 18 26 32 22 9 11 17 18 20 12 11 12 7 9 9 9 7 5 5 5 8 11 9 8 7 6 7 8 8 7 9 8 5 4 4 4 4 5 8 9 6 4 5 6 6 10 12 12 13 13 12 12 9 11 12 13 13 10 12 14 13 12
29 29 29 27 27 27 26 27 30 25 16 15 11 6 5 10 13 13 6 4 11 10 11 16 17 16 17 23 28 20 11 11 13 18 17 7 8 10 9 10 10 8 9 10 9 8 8 8 8 8 7 8 7 8 9 7 6 7 6 5 4 4 3 4 7 8 9 6 5 6 5 7 9 10 12 13 12 10 8 10 10 14 16 15 15 15 15 16
29 29 28 27 27 25 25 29 26 17 16 22 17 7 8 14 13 13 5 3 9 8 9 16 15 12 18 19 14 12 11 10 9 15 14 4 7 9 8 10 9 8 11 14 13 10 6 5 9 10 9 11 10 8 11 9 7 8 8 6 5 6 6 6 5 3 4 5 6 6 4 6 6 7 11 10 8 8 7 7 7 9 12 13 13 12 14 17
29 28 27 27 26 24 27 26 16 13 22 24 13 7 14 16 13 14 6 1 6 6 6 10 6 8 17 17 10 8 8 10 12 14 10 5 6 6 7 7 7 10 13 13 11 9 6 6 12 14 12 13 12 10 12 11 7 8 9 9 8 8 8 9 6 2 3 5 6 7 5 7 6 8 12 9 5 6 6 9 10 11 12 11 11 11 12 14
28 27 27 27 25 27 25 13 11 18 21 15 8 11 17 15 15 14 4 1 5 4 4 4 1 3 7 7 8 6 4 8 12 17 16 13 11 6 5 6 5 9 11 9 7 6 6 8 13 15 14 14 13 11 12 11 8 7 7 9 10 9 7 9 6 1 2 5 5 6 7 6 5 6 12 9 6 6 6 8 11 13 13 13 11 11 13 12
28 29 31 29 26 26 18 10 17 18 10 9 13 18 18 15 15 11 2 1 4 3 6 5 2 4 5 1 7 7 3 3 6 15 17 14 12 8 6 6 5 7 8 7 6 5 8 11 13 14 14 14 13 11 12 11 8 6 6 8 9 10 10 10 6 4 4 3 6 4 6 6 5 6 8 7 7 6 7 8 9 11 14 15 12 12 14 14
32 34 34 30 27 25 19 16 17 11 10 15 19 20 19 14 12 6 1 1 3 2 2 3 6 6 7 6 8 11 5 1 2 8 13 14 11 5 5 6 7 8 10 9 6 5 9 12 14 15 14 11 11 11 11 11 7 5 7 8 7 8 11 9 5 4 2 2 7 6 3 5 5 4 3 7 9 7 9 10 10 11 13 14 12 11 11 13
38 39 34 30 28 24 18 13 12 12 15 17 16 16 14 10 6 3 2 1 2 1 2 1 7 6 8 9 8 13 7 2 0 2 8 13 11 5 3 4 5 9 12 11 6 4 8 12 13 14 12 10 10 10 11 12 8 5 8 9 7 7 7 5 5 4 1 3 8 7 2 2 5 4 2 5 7 9 9 9 10 10 12 12 11 11 10 10
42 40 34 30 26 20 14 11 13 11 12 11 12 12 8 4 4 4 2 1 2 3 1 2 5 5 9 10 3 10 9 7 4 3 3 7 7 6 4 5 4 6 9 10 8 6 7 10 10 10 10 10 9 10 12 13 8 5 7 6 7 8 4 1 3 3 2 6 8 9 6 4 4 5 4 5 6 11 10 8 9 8 9 10 10 11 11 12
41 39 35 28 20 14 9 9 10 6 5 9 11 9 5 2 3 2 0 1 3 4 2 3 5 5 7 8 3 7 9 8 5 3 2 4 6 6 4 4 4 3 3 5 9 11 8 9 10 8 9 10 9 10 12 13 10 7 6 5 4 6 4 2 0 3 5 6 6 9 6 5 4 5 5 5 6 14 15 13 14 14 13 12 12 13 13 13
41 38 32 21 13 11 8 8 8 6 5 7 8 5 2 1 1 2 2 3 4 3 2 5 7 8 8 8 6 6 8 7 5 5 5 4 5 5 5 5 3 4 3 4 6 9 8 7 9 8 8 11 11 8 8 10 10 8 6 5 5 3 3 4 3 3 5 5 6 7 3 3 5 6 8 6 7 15 16 16 19 18 16 14 14 14 12 12
40 34 25 15 11 12 10 9 9 6 4 4 3 2 1 1 2 3 3 3 1 1 3 6 9 12 10 7 5 4 6 6 5 6 6 6 5 4 6 6 3 4 4 3 4 6 6 6 8 10 8 10 12 9 7 8 10 10 7 6 6 5 4 6 3 2 4 4 7 6 3 2 3 4 9 8 9 15 16 18 21 20 19 17 14 12 11 12
35 27 19 12 10 10 9 7 6 4 2 2 2 2 0 2 3 3 3 3 2 4 5 6 10 13 9 3 3 2 3 5 6 6 6 6 5 4 6 7 6 4 3 4 4 6 7 6 7 9 7 9 13 11 9 8 8 10 6 5 6 5 5 4 3 4 4 3 5 3 2 3 2 4 8 6 8 14 15 15 14 13 13 13 11 10 12 12
29 21 15 12 10 9 7 4 0 2 2 2 2 1 2 3 3 3 3 3 3 5 7 8 9 9 7 2 1 3 2 3 5 6 6 6 6 5 5 6 8 6 3 4 4 5 8 6 5 7 6 9 13 11 9 9 7 8 5 5 6 6 5 2 3 6 5 2 2 2 2 4 4 5 4 3 7 10 10 9 9 9 9 10 10 10 11 11
26 20 13 10 9 7 5 2 4 4 3 2 1 2 2 3 3 2 2 3 3 6 9 9 5 3 5 4 3 6 6 3 2 2 5 7 6 6 6 5 7 8 5 4 3 4 6 5 3 7 9 10 12 11 11 10 6 5 5 5 6 6 6 3 3 2 5 3 4 1 1 4 3 4 6 5 8 8 9 10 11 11 12 12 11 10 10 10
26 19 8 5 7 7 4 1 6 4 2 2 1 3 3 3 4 4 3 3 4 4 6 6 2 3 4 4 3 6 7 4 2 2 3 6 5 7 8 6 7 10 8 5 3 1 6 4 5 7 11 11 11 12 13 11 8 6 7 7 5 5 3 2 2 1 3 3 4 1 3 3 1 2 5 7 9 8 10 12 11 10 12 12 11 10 11 10
22 14 6 4 4 5 3 4 8 5 3 0 3 5 4 3 4 6 4 3 4 3 2 3 1 2 3 3 3 6 7 3 2 3 2 5 3 7 10 7 8 12 11 8 3 2 1 2 5 6 10 9 7 10 11 9 7 6 7 6 5 5 3 1 3 3 3 3 3 3 2 3 3 4 1 5 8 8 9 11 11 12 13 13 11 10 11 9
15 7 3 3 3 3 2 4 6 4 2 1 3 4 4 4 7 8 5 3 3 2 2 3 1 1 1 2 4 5 5 3 2 3 2 4 3 8 11 7 7 12 12 8 4 2 2 1 4 6 9 7 4 6 9 6 3 4 6 7 4 3 4 3 3 3 3 4 3 2 2 2 5 6 4 7 10 10 11 11 13 15 15 13 12 12 12 11
8 3 2 2 2 1 2 3 3 2 1 3 3 4 5 6 8 10 7 5 3 2 2 2 1 1 2 3 4 3 3 4 4 2 2 3 2 6 10 8 7 11 11 9 5 3 2 1 3 4 5 7 4 5 8 8 5 4 6 8 4 3 2 3 2 2 4 4 3 2 2 5 5 4 4 8 11 13 15 15 13 14 15 14 14 15 13 12
5 1 2 3 2 3 3 2 1 1 2 3 3 6 8 8 8 10 11 8 5 4 3 3 1 0 1 3 3 1 2 5 3 2 3 3 2 3 7 10 9 6 8 8 7 5 3 1 2 2 3 7 5 3 7 9 7 6 5 5 5 4 4 4 1 2 2 4 4 4 3 7 5 3 4 6 11 13 16 17 14 14 15 14 13 13 13 13
3 1 5 6 2 3 1 1 2 2 2 3 4 7 9 8 6 7 8 7 3 4 3 1 0 1 2 3 2 2 3 4 3 3 2 2 4 4 6 11 11 6 5 6 7 5 2 1 2 2 3 6 4 3 8 10 7 5 5 4 4 4 5 6 3 3 1 1 1 4 2 6 6 3 4 5 10 13 15 16 16 14 15 14 12 11 10 10
1 4 8 8 2 2 0 2 2 2 3 5 7 9 9 7 5 4 5 5 4 2 1 0 1 2 2 4 4 5 4 3 4 5 3 3 5 6 8 12 11 7 5 4 5 4 2 1 3 3 2 2 3 3 6 8 6 4 3 3 5 4 4 5 4 4 3 3 1 3 2 6 5 5 5 6 10 11 11 14 15 15 13 12 13 12 11 10
3 4 4 4 1 1 1 2 4 4 5 7 9 9 8 5 4 5 6 6 5 3 2 1 1 2 4 5 5 6 4 2 4 5 3 3 4 7 11 13 11 7 5 4 4 4 3 2 2 1 2 2 1 1 1 3 4 3 2 2 5 5 5 4 3 3 1 4 4 5 3 6 5 6 5 3 8 9 8 10 12 12 11 10 10 10 10 10
4 2 2 3 2 2 1 1 4 5 7 10 11 10 7 4 4 5 8 8 5 3 2 3 3 4 6 6 5 6 5 3 3 3 3 4 6 8 8 11 12 7 5 8 6 4 3 2 3 4 4 5 6 5 5 4 3 2 2 3 5 6 6 5 4 4 2 3 4 5 4 5 5 6 5 1 7 9 7 5 5 5 6 7 7 6 7 7
3 1 2 4 1 1 0 3 3 4 6 9 9 7 7 5 3 5 6 5 4 3 3 3 4 5 6 5 4 4 3 4 5 4 5 5 4 7 8 6 12 9 7 13 10 4 2 2 2 5 6 6 5 5 4 5 5 2 2 3 3 7 8 6 4 4 5 2 1 3 5 2 3 4 3 2 3 6 5 5 6 5 6 7 7 7 7 7
2 2 3 4 3 2 2 3 3 5 7 7 5 5 7 9 7 3 2 2 3 4 3 3 3 4 4 6 4 2 4 6 6 4 5 5 4 8 11 5 12 12 11 12 8 3 2 2 2 4 6 5 2 3 3 5 7 6 5 4 1 3 7 7 4 5 6 4 2 6 3 4 4 6 4 4 4 5 5 5 6 6 6 7 8 9 10 10
3 2 2 3 3 3 4 6 7 9 11 8 3 4 8 11 10 5 2 3 4 4 1 1 3 4 5 8 5 3 6 7 4 1 4 5 5 9 10 0 8 9 11 6 2 4 4 2 4 4 5 2 3 6 5 3 6 6 6 5 3 5 7 7 6 6 7 6 6 6 6 6 6 7 7 7 7 8 6 6 6 7 7 7 8 10 11 12
2 2 2 2 3 5 6 9 10 10 11 9 4 3 8 12 10 7 4 3 4 3 1 2 5 5 7 9 5 3 5 5 4 2 4 6 6 7 6 2 2 1 5 3 1 2 4 1 4 3 4 5 6 5 5 4 4 5 5 3 3 6 7 6 5 5 7 7 4 4 6 7 6 6 7 4 4 6 7 7 8 8 8 8 9 10 10 10
2 2 3 2 3 6 6 7 8 7 7 7 4 4 7 9 10 9 6 3 4 4 2 3 8 9 8 7 5 5 5 4 5 5 4 6 6 5 3 2 4 7 6 3 1 2 3 2 3 3 5 5 6 5 7 6 4 5 5 5 4 5 5 4 4 4 4 5 4 5 2 4 3 2 3 2 5 8 8 9 9 8 9 10 9 8 8 9
7 7 6 5 4 5 5 5 6 5 4 3 4 6 7 8 10 12 8 4 4 5 5 8 10 9 6 6 6 7 7 5 6 7 6 4 3 2 2 1 2 6 7 2 1 3 3 0 3 4 5 4 6 5 7 8 7 8 8 8 7 5 2 3 4 4 4 6 7 7 2 4 2 2 3 4 7 9 9 9 8 7 8 10 10 9 8 7
11 8 6 4 4 4 5 5 6 4 3 4 6 8 8 9 12 12 7 3 3 5 7 8 9 6 5 6 7 7 7 7 7 8 7 6 6 6 6 7 5 3 4 3 1 2 2 3 2 4 4 3 6 4 6 7 7 5 3 3 2 3 2 2 3 4 0 6 8 6 5 5 4 5 5 5 6 8 8 8 7 7 7 8 9 10 10 9
Wind_Direction
342 341 338 336 334 331 329 327 326 326 327 324 323 323 320 322 320 318 317 313 311 308 305 302 300 301 304 311 314 318 322 321 319 313 290 272 272 265 258 238 236 271 274 257 250 251 282 277 252 241 240 246 202 205 219 213 207 204 185 208 225 221 221 201 199 210 202 243 257 311 291 246 293 297 298 20 77 95 74 30 39 33 59 132 124 130 141 145
340 338 336 333 331 329 327 325 323 322 322 321 322 322 318 319 317 316 316 313 311 309 308 306 304 305 305 308 311 318 323 320 312 296 284 284 281 262 252 240 237 248 245 237 228 218 228 254 263 252 206 191 221 201 198 201 194 206 192 208 225 222 223 211 220 239 235 247 287 330 291 282 275 263 323 18 44 94 89 59 65 73 82 108 118 131 140 144
339 338 335 332 329 327 324 322 322 320 319 317 317 318 319 318 315 312 310 310 310 309 309 306 306 307 307 310 311 321 324 320 309 281 294 1 348 281 243 226 223 226 230 233 238 229 219 247 318 354 198 217 239 210 201 202 202 207 200 225 233 224 242 240 232 247 250 255 304 305 290 302 268 236 23 302 280 94 128 137 118 116 129 131 130 136 140 146
340 338 336 333 330 327 326 323 321 319 317 315 314 313 314 316 316 311 307 308 309 309 308 307 309 307 308 314 312 324 327 314 293 257 23 38 18 10 231 217 215 216 228 242 251 249 244 265 337 12 213 236 242 220 220 212 201 209 209 230 239 209 240 241 234 248 259 264 280 282 296 309 287 250 165 193 80 61 198 202 165 150 147 142 142 145 148 151
340 339 338 335 331 329 329 326 322 320 316 314 313 311 309 309 313 313 309 306 306 307 308 309 310 310 311 311 312 326 332 307 283 10 64 18 356 3 36 212 215 217 224 234 246 250 252 259 35 37 212 232 237 217 226 221 209 240 233 237 242 222 239 242 237 245 257 266 265 272 283 292 297 279 204 163 159 230 220 213 177 153 151 153 153 154 157 158
339 339 339 336 333 332 329 326 324 322 318 315 311 310 309 305 306 309 310 307 305 303 304 309 310 312 309 306 312 318 317 258 308 31 81 4 351 330 332 313 222 220 220 220 229 236 238 221 159 185 185 205 231 221 229 222 207 239 251 243 232 232 244 248 245 245 249 259 256 249 258 283 319 301 253 164 185 233 221 181 164 157 158 157 154 156 162 165
339 339 338 337 335 333 330 328 326 323 320 318 312 309 307 304 303 303 306 307 307 304 300 305 309 310 310 311 308 287 243 262 271 247 272 338 349 339 316 281 231 215 210 205 211 211 202 198 185 178 180 205 226 227 234 234 220 229 248 249 241 239 245 250 253 253 246 247 250 254 298 296 297 299 307 299 266 269 230 155 152 156 153 152 156 164 169 170
339 338 338 337 335 334 333 330 327 324 320 318 314 310 306 304 302 300 301 303 306 307 301 300 305 309 311 313 300 274 241 251 255 256 284 305 318 324 322 294 248 215 205 202 202 196 194 201 199 188 188 212 221 225 226 232 235 232 238 248 249 245 247 250 252 255 252 248 254 265 277 266 258 266 294 291 289 287 137 134 142 148 149 158 168 171 171 165
338 338 338 336 336 335 334 331 328 325 321 317 315 312 307 302 302 301 299 299 301 304 303 300 300 306 310 303 284 276 256 253 261 275 294 299 298 301 311 312 277 221 208 214 213 199 194 195 206 210 199 225 233 243 233 221 233 229 229 241 243 247 249 247 248 252 253 248 242 252 258 253 241 232 274 283 266 172 125 132 142 147 158 169 172 172 165 158
338 338 337 337 336 334 333 332 330 327 324 320 316 313 307 302 301 300 298 296 296 298 301 301 299 306 308 291 261 267 264 261 270 278 282 294 304 306 304 306 302 254 225 222 220 211 211 201 209 224 234 258 238 239 239 224 248 236 224 235 239 245 250 244 246 249 254 252 222 231 252 252 233 209 253 280 212 145 127 136 147 152 166 173 175 173 164 161
338 338 338 337 336 335 333 332 331 329 326 322 318 314 309 305 300 298 297 293 292 293 296 298 301 306 299 282 252 252 250 255 269 274 281 295 304 305 297 295 305 294 268 238 222 218 222 225 233 235 229 249 249 259 255 239 271 276 248 246 244 243 249 245 245 248 251 247 203 203 246 247 220 196 218 231 182 146 137 145 156 164 175 177 176 172 167 166
339 338 337 336 336 335 333 332 332 330 326 324 320 315 311 307 301 297 293 290 290 288 290 294 298 302 292 275 244 241 245 265 279 285 288 292 295 293 291 289 291 290 283 271 247 232 224 224 230 229 232 233 231 261 267 246 254 266 258 257 260 254 251 245 244 246 242 236 187 173 249 248 215 210 203 191 171 150 147 155 166 174 180 179 175 172 170 168
340 339 337 336 336 335 333 331 331 329 327 324 320 317 311 306 302 296 290 287 286 285 286 289 292 295 286 267 252 252 257 271 280 286 285 285 286 284 284 285 284 282 277 270 270 266 251 244 237 230 252 250 226 258 286 282 243 248 243 228 259 266 257 246 239 242 240 240 192 159 246 245 232 239 215 183 156 151 156 164 174 181 182 179 175 174 172 171
340 339 338 337 336 333 332 331 330 329 326 323 320 317 311 306 302 295 291 286 282 282 283 282 288 289 273 263 272 270 270 274 273 274 274 274 278 282 281 280 281 277 273 269 268 275 278 278 268 235 254 246 251 289 297 299 245 238 255 214 220 236 253 240 229 233 235 239 182 163 244 247 244 256 241 210 157 155 168 174 180 184 185 179 176 177 177 180
338 338 337 337 336 332 329 328 329 328 325 323 320 316 312 310 304 297 291 285 282 281 280 284 281 275 274 273 276 281 283 273 263 262 265 266 265 272 275 277 282 278 273 271 269 275 278 277 265 226 257 236 236 265 281 295 279 204 233 233 197 207 249 240 228 218 219 234 181 181 239 252 240 247 242 228 169 158 170 184 188 185 185 181 181 181 178 184
335 335 335 335 335 333 331 329 328 326 325 323 320 316 313 312 309 301 293 286 285 281 274 282 266 238 252 276 278 286 278 257 257 263 266 260 245 241 257 269 283 284 277 271 272 273 269 269 245 215 244 231 214 216 245 280 279 215 194 222 207 197 228 245 248 223 207 219 201 202 223 160 226 237 233 224 196 185 181 188 194 188 184 181 181 180 176 178
332 332 332 332 332 333 332 330 326 323 322 321 319 317 316 316 315 308 298 286 281 274 253 249 253 235 243 265 289 291 272 261 262 268 268 256 239 229 240 255 270 277 280 272 272 267 248 241 224 217 224 221 196 172 204 233 236 262 194 210 239 207 193 202 251 244 201 208 223 222 221 206 219 228 229 223 206 210 205 191 193 191 183 182 179 159 137 110
331 330 330 330 330 331 329 328 326 323 321 319 319 317 317 324 331 328 320 280 260 262 244 244 253 273 255 244 254 262 270 287 288 287 276 256 234 219 216 220 243 261 285 275 260 239 202 208 209 220 216 206 197 184 200 209 194 213 199 178 233 231 200 190 218 245 206 213 231 235 242 235 234 234 233 234 213 211 219 195 186 190 179 174 155 115 102 100
330 330 330 330 329 329 328 327 325 323 322 321 321 320 323 340 358 6 64 110 134 174 246 235 200 208 276 265 239 248 278 297 298 300 285 251 213 203 201 207 233 236 240 233 206 192 177 192 202 210 214 202 201 200 198 184 170 195 198 181 212 220 223 207 214 237 215 222 234 232 246 249 243 239 232 242 227 211 223 191 174 187 172 155 128 113 115 119
331 331 330 329 328 328 327 327 323 322 324 322 322 325 334 358 360 3 72 111 220 242 260 246 213 223 266 283 272 276 295 298 290 286 283 261 183 169 183 196 210 224 222 205 188 181 163 202 217 209 208 199 200 199 190 197 204 201 193 208 224 219 230 221 229 248 214 219 242 229 234 244 242 240 232 233 226 222 225 174 173 185 163 146 131 129 131 127
332 331 330 329 328 328 327 326 322 322 325 323 323 328 333 334 321 320 331 276 240 235 251 252 243 242 249 261 269 282 302 300 290 280 284 275 177 152 172 181 188 213 210 205 211 179 174 213 220 205 199 196 197 194 183 203 223 227 205 215 237 231 235 225 226 250 208 199 248 237 227 240 238 237 238 231 220 228 218 167 176 174 145 137 135 135 135 127
332 331 330 329 329 328 327 325 323 323 329 336 334 284 252 286 296 297 295 285 256 230 240 251 247 248 246 250 258 266 277 280 287 285 285 275 176 160 173 177 193 201 181 203 220 186 205 222 211 191 187 188 194 197 196 209 220 230 225 214 239 237 247 247 235 245 225 196 247 232 218 242 239 232 234 227 218 224 207 177 175 156 143 146 144 141 137 134
332 331 330 330 329 329 327 325 324 325 336 346 326 269 277 307 309 302 280 286 284 252 233 242 240 241 241 247 252 248 242 249 268 275 276 263 184 170 166 179 196 191 180 202 204 188 209 219 190 179 180 186 199 198 198 219 227 225 222 205 227 229 210 238 240 245 240 233 243 225 222 251 246 236 238 230 219 220 203 181 165 153 156 158 156 152 147 147
332 331 330 329 328 328 327 325 325 327 332 329 314 282 323 329 323 320 306 250 287 276 234 235 233 234 238 244 240 216 221 227 232 260 268 240 186 174 167 179 180 188 202 206 207 209 211 170 165 181 188 191 203 201 193 209 227 227 223 200 209 223 210 227 248 280 277 272 257 243 270 278 244 228 238 235 219 216 191 137 114 136 147 147 153 151 149 153
331 330 328 327 327 326 327 325 321 325 324 320 304 290 331 333 327 329 328 256 287 276 248 243 223 233 242 241 225 194 221 231 221 242 256 237 217 186 171 182 177 195 206 205 210 223 225 168 165 184 196 194 202 209 200 198 210 231 226 202 208 221 221 240 257 5 347 298 261 227 239 277 259 223 227 221 197 202 166 126 130 140 136 143 155 151 153 158
330 329 327 325 323 324 329 325 307 318 318 310 295 307 327 336 333 334 343 275 291 279 307 307 191 263 264 228 200 191 249 250 229 236 244 245 248 240 192 178 183 202 197 200 215 221 218 187 174 183 192 195 204 216 209 193 197 229 209 184 210 227 232 245 241 179 231 259 263 213 205 257 280 231 224 208 178 170 135 127 147 149 148 160 165 156 157 158
330 329 329 325 321 323 326 306 304 313 300 290 311 317 324 334 331 334 19 284 292 292 314 316 310 326 327 228 165 162 231 256 214 229 234 232 239 255 238 187 173 196 183 192 219 202 191 188 184 186 187 195 205 213 206 190 194 217 182 174 204 220 234 243 228 206 226 264 292 262 209 233 256 238 223 180 147 139 127 134 156 158 160 167 167 162 161 161
330 331 329 324 320 316 310 300 298 290 268 295 318 318 316 324 326 332 67 294 292 306 300 294 315 319 310 293 178 178 234 357 139 225 213 210 221 240 247 202 178 186 185 198 213 171 177 190 190 186 189 201 205 205 197 187 200 202 182 200 208 208 229 237 224 230 267 319 289 280 216 219 253 272 226 148 142 154 156 157 165 169 170 172 170 165 161 162
332 331 328 326 321 313 312 299 276 275 290 307 326 321 308 316 338 37 86 302 285 328 113 296 317 319 320 313 198 194 243 269 278 259 179 196 217 220 256 241 189 185 196 213 219 156 176 198 197 188 194 206 198 199 196 193 207 191 182 209 226 230 233 220 206 214 245 256 255 263 230 198 273 284 165 146 162 172 167 165 172 177 175 174 172 166 159 159
333 331 329 329 321 314 319 295 275 293 309 313 329 327 313 330 29 63 43 326 282 313 1 299 311 319 324 327 214 199 230 235 259 318 159 179 200 209 255 284 247 199 202 217 230 229 199 194 205 202 201 202 189 191 199 200 200 184 185 199 221 243 259 204 191 158 196 247 250 252 231 180 266 277 190 188 188 166 154 157 174 183 178 172 172 171 166 165
333 332 332 331 320 310 309 288 292 317 308 308 329 335 332 22 73 95 355 310 278 297 318 281 292 302 315 333 320 212 223 239 255 270 231 166 172 197 222 256 241 195 200 207 220 244 237 196 205 214 198 191 187 193 198 198 197 196 196 170 185 239 282 316 248 140 204 247 253 244 225 166 214 265 237 231 184 159 156 162 177 186 185 178 176 176 173 172
333 332 331 331 321 304 279 272 301 313 300 318 338 348 7 39 63 198 254 319 296 289 321 302 302 307 307 314 299 228 218 239 230 226 233 177 175 203 197 213 198 158 198 199 193 229 243 221 212 213 201 188 187 193 192 190 196 206 199 161 160 196 225 226 213 188 213 245 251 227 177 163 222 240 242 233 172 164 166 170 179 183 182 181 180 176 172 172
333 333 333 337 331 309 291 291 307 316 331 341 345 12 81 278 275 219 244 304 294 285 307 297 297 302 301 298 284 228 213 220 198 213 229 182 173 215 213 222 207 152 175 177 168 201 229 255 229 210 205 194 188 184 187 190 192 201 197 167 172 177 186 213 216 212 216 239 256 230 166 259 274 252 238 220 181 177 177 180 183 180 178 180 178 169 168 171
335 339 342 352 343 316 311 313 302 292 318 358 62 46 302 273 274 251 262 267 264 286 290 298 305 307 309 287 249 253 216 210 192 197 213 184 173 208 219 220 215 192 152 160 176 190 202 237 230 209 196 187 193 190 181 178 185 201 188 139 173 183 171 198 190 188 210 238 266 252 174 199 211 237 232 197 180 186 185 186 179 169 170 166 158 160 169 175
340 350 356 2 353 327 331 353 265 202 195 108 74 327 270 274 276 284 286 262 281 295 292 305 309 308 324 337 260 325 339 232 214 192 189 188 186 201 216 213 209 212 176 162 187 195 204 233 223 202 200 187 193 192 171 163 183 203 168 136 191 187 156 183 187 173 171 187 251 224 195 208 205 254 273 128 165 183 173 163 145 141 154 151 154 169 175 177
346 357 8 16 8 348 347 50 136 163 156 97 26 264 245 253 259 288 286 244 278 305 307 311 312 310 332 355 12 355 357 336 284 224 185 186 192 203 213 208 201 210 203 182 208 184 191 253 251 186 206 208 191 182 177 173 176 182 176 190 199 163 147 186 229 185 125 154 241 217 235 293 322 305 329 73 129 144 135 147 155 157 160 161 170 177 178 181
343 347 355 10 15 15 8 155 164 159 119 80 281 254 255 247 245 261 258 249 269 289 307 316 357 39 348 333 352 351 345 336 327 320 183 176 196 208 209 216 207 211 211 201 247 176 153 240 271 191 202 222 196 178 184 181 164 167 192 199 170 147 142 128 174 227 105 162 264 267 186 249 329 279 330 58 108 135 144 157 161 157 162 172 182 180 179 181
332 326 319 322 351 19 20 184 169 141 85 18 267 268 260 235 249 262 252 262 269 251 284 298 336 52 8 331 331 331 327 323 1 350 196 181 211 204 198 213 215 215 216 200 221 302 127 226 267 211 196 215 194 173 186 191 175 174 181 171 155 173 201 100 148 182 135 162 270 304 215 200 197 226 279 97 136 154 152 156 158 163 173 180 183 182 177 169
332 321 315 320 338 13 44 170 157 111 90 238 268 271 258 252 274 282 273 263 262 243 270 260 188 88 307 310 311 311 318 305 315 335 217 189 216 207 194 195 216 218 214 199 196 271 304 215 244 224 191 177 160 172 189 197 173 136 156 171 164 147 165 167 158 159 149 170 219 283 320 266 226 225 194 165 170 161 154 167 174 175 179 180 180 184 179 170
338 329 288 321 2 36 109 141 130 85 156 221 237 254 273 286 288 295 300 281 247 211 245 250 178 329 300 304 300 296 315 301 294 310 238 202 208 216 198 188 216 217 203 203 215 240 281 245 239 250 188 161 181 204 183 173 155 133 162 186 175 104 134 167 160 148 136 146 177 183 271 272 245 228 210 180 173 168 168 175 183 183 181 183 184 184 180 176
325 333 277 341 35 155 140 104 158 167 220 241 245 257 280 293 287 294 302 290 249 212 245 295 337 333 291 300 302 299 308 300 284 258 251 213 177 216 211 205 215 206 178 195 222 233 250 240 234 265 180 174 206 210 158 156 159 156 172 191 168 137 130 137 205 276 119 134 168 163 211 264 256 234 245 196 176 181 180 175 178 184 182 184 190 187 182 179
316 330 294 325 351 177 158 335 247 211 241 270 279 282 290 294 280 286 303 307 281 224 236 295 15 263 259 255 275 289 281 285 265 239 255 239 214 218 224 216 207 175 154 189 213 214 199 170 243 255 208 198 205 143 148 151 141 144 177 182 146 135 129 133 181 255 183 162 171 125 183 261 265 275 278 221 190 189 186 176 173 179 182 183 185 184 181 181
330 300 297 314 299 193 309 314 271 268 269 273 279 283 288 286 273 275 298 314 317 299 268 124 184 258 240 227 259 290 292 289 266 251 272 288 248 223 221 215 198 171 159 185 203 196 175 197 241 263 290 295 348 58 130 138 118 133 201 160 122 142 151 144 163 179 188 225 144 103 231 262 284 318 305 229 196 186 186 180 172 174 180 180 176 175 174 175
314 275 284 314 244 179 17 323 310 307 297 297 293 288 282 267 261 277 297 310 315 325 331 292 229 224 243 249 263 283 297 286 270 276 284 293 282 255 231 209 194 184 175 184 192 186 202 214 168 135 50 54 48 44 139 161 144 152 190 137 121 133 135 144 150 123 191 233 156 136 230 257 282 324 335 195 177 175 186 184 174 173 174 172 170 169 170 169
314 258 254 307 263 156 117 284 300 302 310 316 310 303 298 270 235 255 286 300 294 291 302 273 258 256 265 272 269 273 272 231 248 306 307 291 297 285 249 201 191 190 186 202 196 159 188 207 121 130 152 151 169 195 203 194 172 143 145 136 142 148 151 164 152 120 210 243 136 140 210 255 295 334 4 97 170 171 170 151 137 142 148 148 147 147 153 156
341 322 303 319 306 118 282 273 290 303 312 320 316 311 316 315 278 248 271 292 286 279 262 244 269 276 272 288 293 282 275 246 250 283 304 301 295 303 301 231 193 181 190 208 201 128 112 226 131 129 154 171 190 216 203 149 135 163 155 126 165 187 173 149 123 149 189 181 103 211 201 194 296 315 5 48 155 162 150 122 110 110 117 123 122 124 128 128
6 350 328 335 322 327 332 312 331 322 305 308 315 310 316 321 322 303 270 279 295 297 267 234 259 262 283 321 325 288 300 293 269 262 294 297 280 307 315 257 184 188 204 206 193 129 106 248 226 140 151 179 205 314 322 126 139 170 161 122 110 176 161 149 164 199 173 132 272 262 200 149 213 231 200 153 138 150 150 130 120 119 120 121 119 121 127 133
12 342 327 345 316 309 328 318 317 315 306 306 301 293 314 323 326 332 325 291 299 308 308 273 270 262 307 335 335 304 317 321 312 330 331 316 320 333 332 175 159 190 210 203 156 135 135 204 231 160 133 116 36 11 356 113 142 149 147 153 137 119 139 158 192 204 153 148 224 224 179 189 221 225 205 178 162 163 151 123 114 115 116 116 117 123 135 144
5 310 307 346 307 290 291 291 299 307 311 317 317 299 320 324 323 327 325 300 304 307 186 258 299 316 331 334 332 319 327 333 327 342 353 340 344 352 342 347 66 293 231 216 208 135 124 205 250 141 91 27 26 31 28 63 125 127 122 163 164 138 152 164 193 199 150 148 196 175 173 216 234 223 215 191 136 131 124 115 118 121 122 124 127 133 139 139
0 304 316 319 286 283 277 284 304 309 310 325 332 319 321 319 317 322 319 293 297 301 279 295 316 325 325 324 324 297 278 281 278 275 313 337 347 5 357 352 11 344 312 242 225 42 98 218 275 86 77 7 356 13 28 47 108 117 70 23 36 88 125 156 193 206 139 124 104 86 124 248 262 218 199 118 100 110 119 128 131 134 137 135 133 135 132 130
335 302 307 304 293 306 303 305 322 312 306 338 337 323 322 314 314 319 311 261 242 275 312 331 326 319 312 316 311 285 272 270 259 257 268 285 291 308 306 285 359 344 319 268 135 34 67 105 324 58 73 341 326 359 21 44 77 70 38 11 15 48 111 182 204 206 164 139 112 96 139 241 233 137 111 105 115 120 128 136 134 141 147 142 142 141 136 141
335 310 309 303 285 303 312 316 324 315 311 338 326 316 313 309 314 320 317 285 263 292 317 321 310 304 315 312 296 282 290 290 270 264 263 251 246 245 242 249 256 266 278 285 37 57 90 92 40 69 85 302 304 355 27 49 68 48 346 313 324 351 34 57 354 332 77 136 135 149 199 215 181 151 134 125 126 132 148 155 146 146 145 139 144 147 150 160